RH
17 21 25 24 26 29 30 33 33 32 32 29 30 30 29 29 26 25 25 26 26 23 23 24 22 21 19 19 20 19 20 20 18 16 14 12 12 12 12 12 12 12 11 12 12 12 11 11 11 11 11 11 11 11 11 11 11 12 12 13 13 14 15 15 16 17 18 18 19 19 20 20 21 22 22 23 23 24 25 26 26 26 26 27 27 28
16 21 22 22 25 29 30 33 32 29 29 27 27 27 26 24 21 20 21 22 21 18 20 24 21 18 18 19 20 20 20 18 15 14 13 12 12 12 12 12 13 13 12 13 13 12 12 11 11 11 11 11 11 11 11 11 11 12 12 13 13 14 15 15 15 16 16 17 18 19 19 20 20 21 21 22 23 24 25 26 26 26 27 27 28 29
16 18 17 18 23 26 28 30 28 25 24 23 24 23 18 16 16 17 19 23 22 17 19 23 19 15 17 19 20 19 19 17 15 14 13 12 12 13 13 13 14 13 13 13 12 12 12 12 12 11 11 11 11 11 11 12 12 12 13 13 14 14 15 15 15 16 16 17 18 19 20 20 21 21 23 24 25 27 28 28 29 30 31 31 32 33
13 13 14 18 20 20 20 22 21 19 17 16 19 17 13 13 14 13 16 22 23 19 19 22 19 15 15 19 20 18 18 17 16 16 14 14 14 14 14 14 15 15 14 13 12 12 12 12 12 11 11 11 11 12 12 12 13 13 14 14 14 14 15 15 16 16 17 19 20 21 22 23 24 25 27 28 30 32 33 32 34 34 35 36 37 38
11 10 14 17 18 17 14 15 18 15 12 15 18 16 13 13 13 13 15 20 20 19 20 19 16 13 13 17 18 18 19 19 19 18 17 16 16 15 15 15 15 15 14 14 13 13 12 12 12 12 12 12 12 12 12 13 14 14 15 15 15 16 17 18 19 20 21 23 23 25 25 27 28 29 32 33 35 37 37 36 37 38 39 40 40 41
11 11 14 15 16 15 13 14 16 14 12 13 14 15 13 12 13 15 17 18 18 18 18 17 16 16 13 14 14 16 21 20 20 21 19 18 18 17 16 15 15 14 14 14 13 13 14 13 14 14 13 13 13 13 14 15 16 16 17 17 19 20 22 24 25 25 25 26 26 27 28 30 31 33 35 36 37 37 38 38 39 42 44 45 46 47
11 12 14 15 14 12 11 12 13 16 14 10 10 14 15 14 15 18 18 16 18 19 19 18 20 21 16 11 14 19 23 21 20 22 20 18 18 17 16 15 14 14 13 13 13 13 14 14 15 15 15 15 15 16 16 17 17 18 19 21 23 25 26 27 28 29 30 30 30 31 32 33 35 36 36 37 37 37 38 40 41 44 46 49 52 53
10 12 13 14 13 10 9 9 13 17 13 8 12 18 18 16 16 21 21 20 23 22 21 22 23 27 24 15 16 21 20 18 16 18 18 16 14 15 15 15 13 13 13 13 13 13 14 14 14 14 14 15 15 16 17 18 19 19 21 22 23 25 26 28 30 32 33 34 35 37 39 40 40 40 38 39 41 41 42 43 44 46 47 49 51 51
12 15 13 12 12 11 9 10 15 16 10 11 19 21 20 19 21 26 26 26 28 22 21 26 22 25 27 17 15 18 15 14 15 16 16 13 12 13 13 14 13 13 13 13 13 14 14 14 14 13 14 15 16 17 18 19 20 21 22 23 23 24 27 30 32 34 35 38 41 43 45 44 44 45 45 45 46 47 48 47 47 48 47 47 48 48
14 16 14 12 12 12 11 14 20 17 11 16 21 19 18 21 23 26 27 27 28 24 24 27 23 24 25 16 14 16 14 17 19 19 18 14 13 14 13 14 15 14 14 14 15 15 14 14 14 15 16 17 18 18 19 20 22 23 24 24 25 28 30 33 35 37 40 43 45 46 46 45 46 47 48 47 47 49 51 50 50 52 51 50 51 52
17 18 19 17 14 14 14 17 22 18 15 18 20 16 14 17 20 23 28 26 26 30 29 26 25 25 24 18 16 15 16 22 21 18 18 16 14 15 15 16 16 16 16 16 16 16 15 15 16 18 20 20 20 20 21 22 24 25 26 27 29 31 34 36 39 42 44 44 43 42 43 44 44 44 45 45 45 46 48 48 48 51 54 55 56 57
15 17 20 19 16 17 16 17 20 19 18 18 18 16 12 15 17 19 26 22 20 28 28 26 27 26 24 21 18 18 20 24 22 17 16 16 15 16 17 17 17 17 17 18 18 18 19 20 22 23 22 22 22 22 24 24 26 28 29 31 34 37 39 41 43 44 43 41 39 39 40 40 40 40 41 40 40 40 40 40 40 43 48 50 52 54
14 15 17 16 17 19 15 15 15 16 18 15 16 19 18 20 18 20 28 21 18 24 23 24 26 23 23 19 17 20 19 21 21 18 17 16 16 17 18 19 18 19 19 20 21 22 24 26 26 25 24 24 24 26 27 28 30 33 35 37 41 44 45 45 45 43 41 40 40 40 39 38 38 37 37 36 35 35 35 35 36 36 38 39 41 42
13 14 16 13 15 16 13 12 10 12 15 13 15 18 20 22 18 24 33 22 16 21 19 23 26 22 21 18 19 21 17 18 19 17 17 17 17 19 20 19 19 19 20 21 23 25 27 27 26 25 25 27 29 30 32 34 36 39 42 45 48 47 47 46 44 43 42 43 42 41 39 38 37 36 35 34 34 34 33 33 32 31 31 31 31 32
12 11 13 11 12 15 14 13 10 12 16 17 19 15 16 21 15 19 29 21 18 24 22 23 26 26 23 20 22 22 18 19 19 18 20 20 21 22 21 21 20 20 21 23 26 27 27 27 26 27 29 32 34 36 38 41 43 46 49 50 49 47 47 46 44 43 43 42 40 39 38 37 36 34 33 32 31 30 29 27 26 26 26 26 28 29
13 11 14 16 16 18 17 17 15 14 16 19 20 14 14 21 18 20 27 25 26 33 33 29 27 26 23 21 25 26 24 23 22 23 25 23 24 24 22 23 23 24 27 29 31 30 28 29 30 34 36 38 40 42 44 46 48 52 52 50 48 48 47 45 43 42 39 37 35 34 33 31 30 28 27 26 23 22 21 20 21 22 24 27 28 30
13 12 18 21 20 19 20 20 20 16 15 16 17 16 16 20 23 25 27 31 37 37 34 31 26 24 21 22 30 32 28 26 28 29 28 27 27 25 24 26 27 30 32 33 33 31 32 35 37 40 42 44 47 48 49 51 54 55 52 50 49 48 45 42 40 37 33 30 27 25 23 22 21 21 20 18 17 16 15 15 17 18 22 26 29 29
17 14 18 22 20 21 23 22 22 20 18 18 18 20 21 21 27 29 27 35 43 41 37 32 28 26 24 26 34 35 29 27 30 30 29 30 29 27 29 31 33 35 35 35 36 36 39 41 43 45 47 50 51 52 55 57 57 54 52 50 48 44 41 39 35 31 27 24 22 21 20 19 19 18 17 16 15 14 14 14 15 17 21 26 28 29
20 16 18 25 24 24 25 23 24 23 20 20 19 21 23 23 28 30 28 31 34 38 42 38 32 29 28 31 34 31 28 28 30 32 32 31 30 31 34 36 38 39 38 40 41 42 44 45 46 50 52 54 56 58 60 59 56 53 52 48 44 40 38 33 29 26 24 22 21 21 20 20 19 18 16 15 14 14 13 13 15 18 23 28 29 30
22 16 18 24 24 25 26 25 27 27 24 23 22 25 28 29 32 31 30 31 31 35 42 41 37 30 27 32 33 30 31 31 32 34 34 31 32 35 37 40 41 42 42 44 45 46 47 48 52 54 56 58 61 63 60 56 55 53 49 44 41 38 34 29 27 25 23 22 21 21 21 20 19 17 16 15 14 13 13 14 16 20 25 28 29 30
22 16 19 23 22 24 24 25 28 27 27 27 26 29 31 30 33 31 31 35 35 37 44 47 42 29 24 31 32 30 33 33 34 36 34 32 34 37 40 42 43 44 45 47 48 49 50 53 55 57 60 64 64 62 57 55 55 50 45 41 38 34 30 27 26 24 23 23 22 22 21 20 18 17 16 16 15 14 14 16 17 19 22 24 26 28
18 16 21 23 20 20 22 26 29 27 28 29 28 32 33 31 34 32 33 39 38 37 42 46 38 24 23 31 30 29 32 33 34 35 34 34 35 37 40 42 43 45 47 50 51 53 54 56 58 61 66 66 62 58 56 55 52 46 42 39 34 31 29 27 26 24 23 23 22 22 21 19 18 18 18 17 16 16 16 16 17 18 20 22 24 26
19 18 21 20 18 18 19 24 29 27 27 28 27 30 34 35 34 31 33 38 40 39 41 48 44 28 25 32 30 29 31 31 31 31 32 34 34 36 38 40 44 47 50 52 54 55 57 59 63 68 68 63 59 58 57 53 48 44 40 35 32 30 28 27 26 24 23 22 22 21 20 19 19 19 19 18 18 18 18 17 18 19 21 22 25 28
22 22 22 21 20 17 17 22 25 25 25 25 28 31 31 33 35 35 36 39 41 41 42 48 47 32 29 35 34 32 32 30 31 31 32 33 33 35 38 41 45 48 51 54 55 57 60 64 69 70 64 60 59 59 55 50 45 42 37 33 31 30 28 27 25 24 23 22 21 21 20 19 19 19 19 19 20 20 21 20 21 23 24 26 29 32
24 25 24 24 22 18 20 25 24 23 25 26 30 32 29 32 37 37 38 40 41 41 40 42 40 31 32 38 36 36 37 34 34 34 33 33 34 35 39 42 46 48 51 55 58 62 67 71 72 67 61 61 61 58 53 48 44 39 35 33 31 30 29 27 25 24 24 23 21 21 19 19 18 18 19 19 20 22 22 23 24 26 27 29 31 32
25 29 25 22 22 20 22 25 22 23 25 25 28 31 28 30 33 31 35 40 41 41 41 39 36 29 30 34 34 36 38 37 36 35 34 34 34 37 40 43 45 48 51 57 63 69 73 74 69 63 62 63 61 56 51 47 43 38 35 33 31 30 28 26 25 25 24 23 22 20 20 19 18 18 18 19 20 21 22 23 23 25 26 28 29 30
29 31 27 23 24 22 20 21 22 24 24 20 24 30 31 31 30 32 38 39 39 43 40 34 34 32 30 32 33 34 37 38 37 35 33 34 35 38 41 43 45 49 54 61 69 74 76 72 66 63 65 64 59 54 50 46 42 38 34 33 31 30 28 25 25 25 24 24 22 21 21 20 19 19 20 20 20 20 21 22 23 24 26 28 29 31
31 30 30 29 26 24 23 23 25 27 25 22 23 26 30 33 33 35 36 32 34 41 37 30 34 37 33 32 34 35 38 38 37 35 34 35 37 40 42 44 47 52 59 68 75 78 75 69 65 66 66 63 57 53 49 45 41 36 34 32 31 30 28 25 25 25 24 24 23 22 21 20 20 20 20 21 21 21 21 22 23 25 27 29 30 32
33 31 33 33 29 28 29 29 30 31 28 27 26 25 27 33 35 34 32 29 33 36 31 29 36 38 35 34 36 37 38 36 35 35 36 37 40 42 43 46 50 56 65 73 78 77 72 67 67 68 66 61 55 52 48 43 38 35 33 32 31 30 28 26 25 25 25 24 23 22 22 21 21 20 21 21 21 21 22 22 22 24 26 28 29 31
33 36 40 39 33 30 32 33 33 35 33 31 30 28 27 30 33 33 30 30 33 34 30 32 37 37 36 37 36 36 37 37 36 37 39 41 42 43 45 48 53 61 69 76 78 75 70 69 70 69 64 59 55 51 46 41 37 35 33 32 30 29 27 26 26 26 26 25 24 23 22 21 21 21 22 21 21 22 22 22 23 25 27 28 28 29
33 39 45 43 35 30 35 39 37 38 39 35 30 30 29 29 31 31 31 32 34 35 33 36 41 40 38 38 38 37 38 38 38 40 41 43 44 45 48 51 56 64 72 76 77 73 70 71 71 67 62 58 54 50 45 40 37 35 33 32 31 29 27 27 26 27 27 26 24 23 22 22 22 22 22 22 22 23 23 24 24 26 29 30 30 30
36 40 44 43 38 32 36 42 41 38 39 36 31 29 28 29 31 30 30 31 32 34 35 40 46 44 39 39 39 39 40 41 41 42 42 44 46 47 50 53 59 66 73 77 76 72 71 72 70 65 61 57 53 49 44 41 37 35 33 32 31 29 27 27 27 27 27 26 24 23 22 22 22 23 23 23 23 24 25 26 26 28 31 32 32 33
41 43 44 45 42 37 38 42 41 40 38 33 29 28 27 27 29 30 30 31 31 33 36 42 44 41 39 41 41 41 43 44 43 42 43 44 46 48 51 55 61 68 74 77 75 72 73 72 69 64 61 57 53 49 45 40 37 35 34 32 30 29 27 27 27 27 26 25 24 23 23 23 23 24 24 24 25 26 27 27 27 29 33 34 35 35
44 43 46 46 44 44 44 42 41 43 40 31 27 29 29 28 30 30 29 30 31 31 35 38 40 40 43 44 43 43 43 43 43 42 43 45 47 50 53 58 64 71 77 78 75 74 74 72 68 64 60 57 53 49 44 40 37 35 34 32 30 28 27 27 27 27 26 25 25 24 24 25 25 25 25 25 26 28 29 29 29 30 33 36 37 38
45 43 46 48 48 47 47 47 44 40 35 30 28 31 30 28 30 30 28 29 30 31 34 36 39 43 46 45 45 44 42 42 43 44 45 47 50 53 57 61 67 75 79 79 76 76 75 72 67 63 60 56 52 47 43 39 37 35 34 31 29 28 27 27 27 27 27 26 26 26 26 26 26 26 26 26 28 29 30 31 31 32 34 38 39 40
46 47 47 49 51 50 50 52 45 33 28 28 29 30 30 30 30 31 30 30 30 31 34 37 40 45 48 47 46 45 43 45 46 46 47 50 53 56 59 64 70 78 81 80 78 77 75 70 66 63 59 55 50 45 41 39 37 35 33 30 29 28 28 27 28 28 27 27 27 27 27 27 27 27 27 28 29 31 32 32 32 33 36 39 41 43
43 46 46 48 51 50 52 54 45 34 31 30 29 30 31 31 31 34 34 32 30 32 34 36 41 46 48 49 48 48 50 51 51 49 50 53 56 59 61 67 74 80 82 80 79 77 73 68 65 63 58 53 48 43 40 38 36 34 32 30 29 28 28 28 28 28 28 28 27 27 28 28 28 28 28 29 31 33 34 34 35 35 37 40 43 45
42 44 45 47 50 53 58 62 59 48 38 32 32 32 32 31 33 36 37 33 30 32 33 36 41 46 50 52 52 54 55 54 52 51 53 56 58 61 64 70 77 82 83 81 80 76 71 68 65 62 57 52 47 42 39 38 36 34 32 30 29 28 28 29 29 29 28 28 28 28 29 30 29 29 30 31 33 35 36 37 37 37 39 42 45 48
44 45 45 47 53 58 62 68 68 54 37 32 34 34 33 34 33 37 41 37 33 33 33 36 41 46 50 53 55 58 59 56 53 52 54 58 60 63 67 74 80 84 84 81 79 75 71 68 66 61 56 51 46 42 39 37 36 33 32 30 29 29 29 29 29 29 29 29 29 30 30 31 31 31 32 33 35 37 38 39 39 40 42 44 48 50
47 48 48 50 55 59 63 68 63 48 37 36 36 35 36 35 35 42 49 46 39 36 35 37 42 46 49 53 58 61 62 59 56 54 55 59 62 65 71 79 84 87 85 82 79 75 71 69 65 60 54 49 45 42 39 37 36 33 32 31 30 29 29 30 30 30 30 30 30 31 32 33 33 33 34 36 37 40 41 41 42 43 44 47 51 54
50 50 51 54 57 60 67 71 63 46 39 41 40 38 36 36 40 48 51 44 38 36 36 39 43 46 49 54 59 61 60 57 56 56 58 62 65 70 77 84 88 88 85 83 79 75 71 69 65 59 52 47 44 42 39 37 35 33 32 31 30 30 30 30 31 31 31 31 32 33 34 34 34 34 36 38 40 42 43 44 44 45 46 49 53 57
52 53 53 56 60 61 66 73 69 53 42 42 42 39 38 41 46 48 44 39 37 37 39 42 45 48 52 55 58 58 57 57 58 60 63 66 70 76 83 88 90 88 86 83 79 75 72 68 63 57 51 46 44 41 39 37 35 34 33 31 31 31 31 31 32 32 32 33 33 34 36 36 35 36 37 39 41 43 45 46 46 47 47 49 53 58
46 51 55 57 58 60 66 75 75 60 46 42 43 42 42 44 45 42 40 39 40 41 43 46 48 52 55 57 58 59 59 60 62 65 68 71 76 82 88 91 91 89 86 83 79 75 72 67 60 54 49 46 44 41 39 38 36 34 33 32 32 32 32 32 33 33 33 34 35 36 37 37 36 37 38 40 42 44 46 47 47 48 48 49 53 58
42 45 51 54 54 58 64 66 62 53 46 44 43 42 43 43 41 41 42 42 43 45 47 48 50 54 58 59 60 61 62 64 67 70 72 76 81 87 91 92 92 90 87 83 79 75 70 64 57 52 48 46 43 41 40 38 36 35 34 33 33 33 33 33 34 34 35 35 36 37 38 37 37 37 39 40 42 44 46 47 48 49 49 51 52 56
41 42 47 48 48 50 51 49 48 47 47 46 42 41 42 42 42 44 45 45 46 47 48 49 51 56 60 63 63 64 66 69 72 74 77 81 86 91 93 94 92 90 87 82 78 74 68 60 54 50 47 45 43 42 40 38 37 36 35 35 35 34 34 35 35 36 36 36 37 38 38 38 37 38 40 41 43 45 47 48 50 51 51 52 53 55
41 43 47 46 47 47 43 42 47 48 45 45 44 43 43 43 44 46 47 46 47 47 49 52 54 58 64 66 66 67 69 72 75 78 81 86 90 93 95 94 93 90 85 81 77 72 63 56 52 49 45 43 43 42 40 39 38 38 37 36 36 36 36 37 37 37 37 38 38 39 39 39 38 39 41 43 44 46 48 49 51 52 53 54 54 56
47 48 49 48 48 50 46 45 49 48 44 45 45 43 44 45 45 47 48 47 47 49 52 54 58 62 67 69 69 70 72 75 78 81 85 90 93 95 95 95 93 89 84 80 74 67 59 53 50 47 44 43 43 43 41 40 40 39 39 38 38 38 38 38 39 39 39 39 40 40 40 40 39 40 42 45 47 48 50 50 52 52 54 55 55 56
52 52 54 53 51 52 51 49 48 46 43 44 46 45 45 47 47 48 50 50 50 52 54 57 62 67 70 71 72 74 76 79 81 85 89 93 95 96 96 95 92 88 83 77 70 62 55 52 49 46 44 43 44 43 42 41 41 41 41 40 40 40 40 40 41 41 41 41 42 42 42 41 41 42 43 46 48 50 51 52 52 53 55 58 58 58
58 57 58 60 57 54 53 52 49 45 41 41 45 48 48 49 49 50 51 52 53 56 59 62 66 70 72 74 76 78 80 82 85 89 93 95 95 96 97 95 91 85 79 72 64 58 54 51 49 46 44 44 45 44 43 42 43 43 43 43 43 42 42 42 43 43 43 43 43 43 43 43 43 43 44 46 48 50 51 53 54 54 55 59 62 61
63 63 64 67 66 60 54 51 53 53 47 42 45 49 50 51 51 51 53 56 58 61 64 67 70 73 75 77 80 82 83 86 89 93 95 96 96 97 97 94 89 82 74 67 61 56 54 51 49 46 45 45 45 45 44 44 45 46 46 45 45 45 44 44 44 44 45 45 44 44 44 44 45 46 46 46 47 49 51 54 58 59 58 59 62 64
67 68 69 69 68 60 52 51 54 57 54 49 49 51 52 53 54 55 57 61 63 66 69 72 74 77 79 81 83 85 87 90 93 95 96 96 97 97 96 92 85 76 68 63 59 56 54 51 49 47 46 46 47 46 46 46 47 48 48 48 47 47 46 45 46 46 46 46 45 46 46 46 47 47 48 48 50 51 52 54 58 62 64 64 65 66